User: anonymous   Login
Location: Elstree
(51.6403°N, 0.2969°W)
Time: 15:54:24
(UTC+00:00)
Language:

Cosmos 2154 Rocket - Orbit

View from above orbital plane
View from above orbital plane
View from above satellite
View from above satellite

Ground track
Ground track

The orbit data is extracted from the following two-line orbital elements,

1 21667U 91059B   21131.79246520  .00000032  00000-0  17578-4 0  9996
2 21667  82.9098  28.2321 0019596 241.3438 180.0541 13.75105399491212
Epoch (UTC): 11 May 2021 19:01:08
Eccentricity: 0.0019596
inclination: 82.9098°
perigee height: 967 km
apogee height: 996 km
right ascension of ascending node: 28.2321°
argument of perigee: 241.3438°
revolutions per day: 13.75105399
mean anomaly at epoch: 180.0541°
orbit number at epoch: 49121

The dashed part of the orbit path shows where the satellite is in the earth's shadow,  

DLR